User: anonymous   Login
Location: Unspecified
(0.0000°N, 0.0000°E)
Time: 01:07:34
(UTC+00:00)
Language:

STARLINK-35836 - Orbit

View from above orbital plane
View from above orbital plane
View from above satellite
View from above satellite

Ground track
Ground track

The orbit is defined by the following mean orbital elements,

1 66571U          26145.37750959 +.00000000 +00000-0 +82847-3 0 00003
2 66571  42.9968 274.3659 0000200 257.1141 102.9689 15.27602228    04
Epoch (UTC): 25 May 2026 09:03:36
Eccentricity: 0.0000200
inclination: 42.9968°
perigee height: 483 km
apogee height: 483 km
right ascension of ascending node: 274.3659°
argument of perigee: 257.1141°
revolutions per day: 15.27602228
mean anomaly at epoch: 102.9689°

The dashed part of the orbit path shows where the satellite is in the earth's shadow,  

DLR